| time (UTC) | temp C | wind direction | speed KPH | gust KPH | rain 1hr cm | rain 24hr cm | rain mn cm | humidity % | barometer mb |
| 20260503181119 | 23 | 45 | 3.2 | 4.8 | 0.00 | 0.00 | 0.00 | 52 | 1013.3 |
| 20260503180616 | 24 | 351 | 4.8 | 6.4 | 0.00 | 0.00 | 0.00 | 53 | 1013.5 |
| 20260503180114 | 23 | 283 | 1.6 | 4.8 | 0.00 | 0.00 | 0.00 | 55 | 1013.5 |
| 20260503175611 | 23 | 28 | 4.8 | 12.9 | 0.00 | 0.00 | 0.00 | 55 | 1013.5 |
| 20260503175108 | 23 | 301 | 1.6 | 6.4 | 0.00 | 0.00 | 0.00 | 55 | 1013.6 |
| 20260503174605 | 23 | 29 | 6.4 | 12.9 | 0.00 | 0.00 | 0.00 | 54 | 1013.5 |
| 20260503174101 | 23 | 338 | 1.6 | 6.4 | 0.00 | 0.00 | 0.00 | 57 | 1013.6 |
| 20260503173556 | 22 | 348 | 4.8 | 11.3 | 0.00 | 0.00 | 0.00 | 54 | 1013.6 |
| 20260503173053 | 22 | 6 | 3.2 | 9.7 | 0.00 | 0.00 | 0.00 | 56 | 1013.6 |
| 20260503172550 | 22 | 20 | 4.8 | 9.7 | 0.00 | 0.00 | 0.00 | 58 | 1013.9 |
| 20260503172047 | 22 | 337 | 3.2 | 6.4 | 0.00 | 0.00 | 0.00 | 61 | 1013.9 |
| 20260503171543 | 21 | 332 | 3.2 | 11.3 | 0.00 | 0.00 | 0.00 | 62 | 1014.0 |
| 20260503171041 | 21 | 289 | 1.6 | 11.3 | 0.00 | 0.00 | 0.00 | 65 | 1013.7 |
| 20260503170537 | 21 | 9 | 4.8 | 4.8 | 0.00 | 0.00 | 0.00 | 62 | 1013.9 |
| 20260503150930 | 12 | 1 | 0.0 | 0.0 | 0.00 | 0.00 | 0.00 | 98 | 1014.4 |
| 20260503150427 | 12 | 1 | 0.0 | 0.0 | 0.00 | 0.00 | 0.00 | 98 | 1014.3 |
| 20260503131320 | 10 | 191 | 0.0 | 0.0 | 0.00 | 0.00 | 0.00 | 97 | 1014.0 |
| 20260503130817 | 10 | 191 | 0.0 | 0.0 | 0.00 | 0.00 | 0.00 | 98 | 1013.8 |
| 20260503130315 | 10 | 192 | 0.0 | 0.0 | 0.00 | 0.00 | 0.00 | 98 | 1013.7 |
| 20260503110708 | 10 | 192 | 0.0 | 0.0 | 0.00 | 0.00 | 0.00 | 97 | 1014.3 |
| 20260503110205 | 10 | 192 | 0.0 | 0.0 | 0.00 | 0.00 | 0.00 | 97 | 1014.1 |
| 20260503100132 | 11 | 191 | 0.0 | 0.0 | 0.00 | 0.00 | 0.00 | 97 | 1014.2 |
| 20260503081521 | 11 | 205 | 0.0 | 0.0 | 0.00 | 0.00 | 0.00 | 96 | 1014.9 |
| 20260503081019 | 11 | 205 | 0.0 | 0.0 | 0.00 | 0.00 | 0.00 | 95 | 1014.8 |
| 20260503080514 | 11 | 205 | 0.0 | 0.0 | 0.00 | 0.00 | 0.00 | 95 | 1014.7 |
| 20260503072448 | 12 | 205 | 0.0 | 0.0 | 0.00 | 0.00 | 0.00 | 94 | 1014.7 |
| 20260503071945 | 12 | 205 | 0.0 | 0.0 | 0.00 | 0.00 | 0.00 | 94 | 1014.7 |
| 20260503071442 | 12 | 205 | 0.0 | 0.0 | 0.00 | 0.00 | 0.00 | 93 | 1014.7 |
| 20260503070938 | 12 | 205 | 0.0 | 0.0 | 0.00 | 0.00 | 0.00 | 93 | 1015.0 |
| 20260503070435 | 12 | 205 | 0.0 | 0.0 | 0.00 | 0.00 | 0.00 | 94 | 1015.1 |
| 20260503054849 | 14 | 210 | 3.2 | 3.2 | 0.00 | 0.05 | 0.05 | 86 | 1015.1 |
| 20260503054345 | 13 | 89 | 1.6 | 1.6 | 0.00 | 0.05 | 0.05 | 88 | 1014.9 |
| 20260503053843 | 13 | 75 | 1.6 | 1.6 | 0.00 | 0.05 | 0.05 | 89 | 1014.9 |
| 20260503053341 | 13 | 73 | 0.0 | 0.0 | 0.00 | 0.05 | 0.05 | 89 | 1015.1 |
| 20260503052837 | 13 | 73 | 0.0 | 0.0 | 0.00 | 0.05 | 0.05 | 88 | 1014.9 |
| 20260503052334 | 13 | 73 | 0.0 | 0.0 | 0.00 | 0.05 | 0.05 | 87 | 1014.7 |
| 20260503051830 | 14 | 73 | 0.0 | 0.0 | 0.00 | 0.05 | 0.05 | 86 | 1014.9 |
| 20260503051327 | 14 | 73 | 0.0 | 0.0 | 0.00 | 0.05 | 0.05 | 85 | 1014.7 |
| 20260503050823 | 14 | 18 | 1.6 | 1.6 | 0.00 | 0.05 | 0.05 | 84 | 1014.8 |
| 20260503050320 | 14 | 15 | 0.0 | 0.0 | 0.00 | 0.05 | 0.05 | 85 | 1014.7 |
| 20260503045818 | 14 | 15 | 0.0 | 0.0 | 0.00 | 0.05 | 0.05 | 85 | 1014.6 |
| 20260503045315 | 14 | 15 | 0.0 | 0.0 | 0.00 | 0.05 | 0.05 | 85 | 1014.5 |
| 20260503044811 | 14 | 15 | 0.0 | 0.0 | 0.00 | 0.05 | 0.05 | 85 | 1014.7 |
| 20260503044308 | 14 | 15 | 0.0 | 0.0 | 0.00 | 0.05 | 0.05 | 85 | 1014.8 |
| 20260503043805 | 15 | 15 | 0.0 | 0.0 | 0.00 | 0.05 | 0.05 | 84 | 1014.5 |
| 20260503043302 | 15 | 15 | 0.0 | 0.0 | 0.00 | 0.05 | 0.05 | 83 | 1014.6 |
| 20260503042758 | 15 | 15 | 0.0 | 0.0 | 0.00 | 0.05 | 0.05 | 83 | 1014.7 |
| 20260503042255 | 15 | 15 | 0.0 | 0.0 | 0.00 | 0.05 | 0.05 | 83 | 1014.8 |
| 20260503041751 | 15 | 16 | 0.0 | 0.0 | 0.00 | 0.05 | 0.05 | 82 | 1014.6 |
| 20260503041249 | 15 | 16 | 0.0 | 0.0 | 0.00 | 0.05 | 0.05 | 82 | 1014.6 |
| 20260503040746 | 15 | 4 | 0.0 | 0.0 | 0.00 | 0.05 | 0.05 | 82 | 1014.5 |
| 20260503040244 | 15 | 4 | 0.0 | 0.0 | 0.00 | 0.05 | 0.05 | 82 | 1014.3 |
| 20260503035740 | 15 | 4 | 0.0 | 0.0 | 0.00 | 0.05 | 0.05 | 81 | 1014.6 |
| 20260503035238 | 15 | 5 | 0.0 | 0.0 | 0.00 | 0.05 | 0.05 | 81 | 1014.4 |
| 20260503034735 | 15 | 5 | 0.0 | 0.0 | 0.00 | 0.05 | 0.05 | 81 | 1014.5 |
| 20260503034232 | 15 | 6 | 0.0 | 0.0 | 0.00 | 0.05 | 0.05 | 81 | 1014.6 |
| 20260503033729 | 16 | 5 | 0.0 | 0.0 | 0.00 | 0.05 | 0.05 | 79 | 1014.5 |
| 20260503033226 | 16 | 5 | 1.6 | 1.6 | 0.00 | 0.05 | 0.05 | 79 | 1014.6 |
| 20260503032725 | 15 | 74 | 3.2 | 3.2 | 0.00 | 0.05 | 0.05 | 80 | 1014.4 |
| 20260503032223 | 15 | 107 | 0.0 | 0.0 | 0.00 | 0.05 | 0.05 | 80 | 1014.7 |
| 20260503031720 | 15 | 95 | 0.0 | 0.0 | 0.00 | 0.05 | 0.05 | 81 | 1014.5 |
| 20260503031218 | 15 | 94 | 0.0 | 1.6 | 0.00 | 0.05 | 0.05 | 82 | 1014.7 |
| 20260503030714 | 15 | 83 | 0.0 | 1.6 | 0.00 | 0.05 | 0.05 | 82 | 1014.5 |
| 20260503030210 | 16 | 79 | 3.2 | 3.2 | 0.00 | 0.05 | 0.05 | 80 | 1014.4 |
| 20260503025707 | 15 | 15 | 0.0 | 0.0 | 0.00 | 0.05 | 0.05 | 80 | 1014.4 |
| 20260503025205 | 16 | 14 | 1.6 | 1.6 | 0.00 | 0.05 | 0.05 | 80 | 1014.4 |
| 20260503024701 | 16 | 13 | 0.0 | 0.0 | 0.00 | 0.05 | 0.05 | 78 | 1014.3 |
| 20260503024159 | 16 | 13 | 0.0 | 0.0 | 0.00 | 0.05 | 0.05 | 76 | 1014.4 |
| 20260503023656 | 17 | 13 | 1.6 | 1.6 | 0.00 | 0.05 | 0.05 | 74 | 1014.2 |
| 20260503023152 | 17 | 287 | 0.0 | 0.0 | 0.00 | 0.05 | 0.05 | 73 | 1014.4 |
| 20260503022648 | 17 | 290 | 0.0 | 3.2 | 0.00 | 0.05 | 0.05 | 71 | 1014.4 |
| 20260503022148 | 17 | 229 | 4.8 | 4.8 | 0.00 | 0.05 | 0.05 | 70 | 1014.3 |
| 20260503021645 | 17 | 234 | 1.6 | 4.8 | 0.00 | 0.05 | 0.05 | 71 | 1014.6 |
| 20260503021142 | 17 | 235 | 8.0 | 11.3 | 0.00 | 0.05 | 0.05 | 70 | 1014.6 |
| 20260503020639 | 17 | 267 | 3.2 | 12.9 | 0.00 | 0.05 | 0.05 | 72 | 1014.9 |
| 20260503020136 | 17 | 244 | 8.0 | 11.3 | 0.00 | 0.05 | 0.05 | 71 | 1014.9 |
| 20260503015633 | 17 | 208 | 9.7 | 16.1 | 0.00 | 0.05 | 0.05 | 71 | 1014.8 |
| 20260503015130 | 18 | 162 | 8.0 | 20.9 | 0.00 | 0.05 | 0.05 | 70 | 1015.1 |
| 20260503014626 | 18 | 218 | 9.7 | 12.9 | 0.00 | 0.05 | 0.05 | 70 | 1014.7 |
| 20260503014124 | 18 | 167 | 4.8 | 12.9 | 0.00 | 0.05 | 0.05 | 69 | 1014.4 |
| 20260503013621 | 18 | 191 | 4.8 | 9.7 | 0.00 | 0.05 | 0.05 | 68 | 1014.3 |
| 20260503013119 | 18 | 185 | 3.2 | 6.4 | 0.00 | 0.05 | 0.05 | 67 | 1014.0 |
| 20260503012616 | 18 | 164 | 3.2 | 9.7 | 0.00 | 0.05 | 0.05 | 67 | 1014.1 |
| 20260503012112 | 18 | 166 | 3.2 | 6.4 | 0.00 | 0.05 | 0.05 | 67 | 1014.0 |
| 20260503011609 | 19 | 183 | 3.2 | 6.4 | 0.00 | 0.05 | 0.05 | 67 | 1013.7 |
| 20260503011106 | 19 | 190 | 4.8 | 4.8 | 0.00 | 0.05 | 0.05 | 65 | 1014.1 |
| 20260503010602 | 19 | 205 | 3.2 | 6.4 | 0.00 | 0.05 | 0.05 | 66 | 1013.9 |
| 20260503010100 | 20 | 222 | 4.8 | 6.4 | 0.00 | 0.05 | 0.05 | 64 | 1013.9 |
| 20260503005557 | 20 | 134 | 3.2 | 4.8 | 0.00 | 0.05 | 0.05 | 61 | 1014.0 |
| 20260503005054 | 20 | 297 | 0.0 | 0.0 | 0.00 | 0.05 | 0.05 | 62 | 1013.8 |
| 20260503004550 | 20 | 297 | 0.0 | 1.6 | 0.00 | 0.05 | 0.05 | 56 | 1013.8 |
| 20260503004049 | 20 | 297 | 1.6 | 1.6 | 0.00 | 0.05 | 0.05 | 62 | 1013.7 |
| 20260503003545 | 20 | 297 | 0.0 | 1.6 | 0.00 | 0.05 | 0.05 | 60 | 1013.7 |
| 20260503003042 | 21 | 297 | 1.6 | 3.2 | 0.00 | 0.05 | 0.05 | 56 | 1013.7 |
| 20260503002539 | 21 | 283 | 0.0 | 0.0 | 0.00 | 0.05 | 0.05 | 56 | 1013.9 |
| 20260503002036 | 21 | 282 | 0.0 | 3.2 | 0.00 | 0.05 | 0.05 | 56 | 1013.8 |
| 20260503001532 | 21 | 283 | 0.0 | 3.2 | 0.00 | 0.05 | 0.05 | 56 | 1013.8 |
| 20260503001030 | 21 | 299 | 1.6 | 6.4 | 0.00 | 0.05 | 0.05 | 54 | 1013.8 |
| 20260503000527 | 20 | 317 | 0.0 | 4.8 | 0.00 | 0.05 | 0.05 | 57 | 1013.6 |
| 20260503000024 | 21 | 290 | 1.6 | 4.8 | 0.00 | 0.05 | 0.05 | 54 | 1013.7 |
| 20260502235520 | 21 | 262 | 0.0 | 3.2 | 0.00 | 0.05 | 0.05 | 58 | 1013.8 |
| 20260502235018 | 21 | 306 | 1.6 | 4.8 | 0.00 | 0.05 | 0.05 | 59 | 1013.6 |
| 20260502234514 | 21 | 298 | 0.0 | 1.6 | 0.00 | 0.05 | 0.05 | 55 | 1013.8 |
| 20260502234012 | 20 | 287 | 1.6 | 3.2 | 0.00 | 0.05 | 0.05 | 58 | 1014.2 |
| 20260502233512 | 20 | 288 | 6.4 | 6.4 | 0.00 | 0.05 | 0.05 | 55 | 1014.1 |
| 20260502233010 | 21 | 284 | 3.2 | 4.8 | 0.00 | 0.05 | 0.05 | 55 | 1014.2 |
| 20260502232506 | 21 | 31 | 3.2 | 4.8 | 0.00 | 0.05 | 0.05 | 53 | 1014.2 |
| 20260502232003 | 21 | 62 | 1.6 | 1.6 | 0.00 | 0.05 | 0.05 | 56 | 1014.4 |
| 20260502231500 | 21 | 260 | 3.2 | 6.4 | 0.00 | 0.05 | 0.05 | 53 | 1014.4 |
| 20260502230958 | 21 | 262 | 1.6 | 4.8 | 0.00 | 0.05 | 0.05 | 54 | 1014.4 |
| 20260502230455 | 20 | 58 | 0.0 | 1.6 | 0.00 | 0.05 | 0.05 | 56 | 1014.4 |
| 20260502225953 | 21 | 337 | 1.6 | 4.8 | 0.00 | 0.05 | 0.05 | 55 | 1014.6 |
| 20260502225449 | 21 | 12 | 1.6 | 3.2 | 0.00 | 0.05 | 0.05 | 58 | 1014.5 |
| 20260502224946 | 20 | 263 | 3.2 | 6.4 | 0.00 | 0.05 | 0.05 | 57 | 1014.5 |
| 20260502224442 | 20 | 2 | 3.2 | 4.8 | 0.00 | 0.05 | 0.05 | 56 | 1014.6 |
| 20260502223939 | 20 | 295 | 3.2 | 4.8 | 0.00 | 0.05 | 0.05 | 56 | 1014.8 |
| 20260502223437 | 20 | 27 | 1.6 | 1.6 | 0.00 | 0.05 | 0.05 | 60 | 1014.7 |
| 20260502222935 | 19 | 278 | 3.2 | 3.2 | 0.00 | 0.05 | 0.05 | 60 | 1015.1 |
| 20260502222432 | 19 | 289 | 1.6 | 4.8 | 0.00 | 0.05 | 0.05 | 60 | 1014.9 |
| 20260502221928 | 18 | 277 | 1.6 | 1.6 | 0.00 | 0.05 | 0.05 | 61 | 1015.2 |
| 20260502221424 | 18 | 272 | 3.2 | 3.2 | 0.00 | 0.05 | 0.05 | 62 | 1015.3 |
| 20260502220922 | 18 | 290 | 3.2 | 3.2 | 0.00 | 0.05 | 0.05 | 63 | 1015.1 |
| 20260502220417 | 18 | 293 | 3.2 | 3.2 | 0.00 | 0.05 | 0.05 | 61 | 1015.5 |
| 20260502215914 | 18 | 313 | 0.0 | 0.0 | 0.00 | 0.05 | 0.05 | 63 | 1015.3 |
| 20260502215412 | 18 | 254 | 11.3 | 14.5 | 0.00 | 0.05 | 0.05 | 60 | 1015.1 |
| 20260502214908 | 19 | 51 | 0.0 | 6.4 | 0.00 | 0.05 | 0.05 | 61 | 1015.4 |
| 20260502214405 | 19 | 43 | 4.8 | 4.8 | 0.00 | 0.05 | 0.05 | 62 | 1015.4 |
| 20260502213902 | 19 | 284 | 8.0 | 9.7 | 0.00 | 0.05 | 0.05 | 59 | 1015.7 |
| 20260502213359 | 19 | 224 | 1.6 | 1.6 | 0.00 | 0.05 | 0.05 | 63 | 1015.8 |
| 20260502212858 | 18 | 353 | 3.2 | 4.8 | 0.00 | 0.05 | 0.05 | 66 | 1015.7 |
| 20260502212356 | 18 | 26 | 3.2 | 4.8 | 0.00 | 0.05 | 0.05 | 65 | 1015.8 |
| 20260502211853 | 18 | 24 | 3.2 | 4.8 | 0.00 | 0.05 | 0.05 | 65 | 1016.0 |
| 20260502211348 | 18 | 289 | 6.4 | 6.4 | 0.00 | 0.05 | 0.05 | 62 | 1016.0 |
| 20260502210846 | 18 | 286 | 3.2 | 4.8 | 0.00 | 0.05 | 0.05 | 63 | 1016.0 |
| 20260502210343 | 17 | 349 | 3.2 | 4.8 | 0.00 | 0.05 | 0.05 | 64 | 1016.1 |
| 20260502205841 | 17 | 307 | 6.4 | 9.7 | 0.00 | 0.05 | 0.05 | 65 | 1016.2 |
| 20260502205336 | 17 | 346 | 3.2 | 11.3 | 0.00 | 0.05 | 0.05 | 67 | 1016.5 |
| 20260502204834 | 17 | 109 | 0.0 | 3.2 | 0.00 | 0.05 | 0.05 | 68 | 1016.5 |
| 20260502204331 | 17 | 308 | 0.0 | 1.6 | 0.00 | 0.05 | 0.05 | 65 | 1016.5 |
| 20260502203828 | 16 | 278 | 6.4 | 6.4 | 0.00 | 0.05 | 0.05 | 69 | 1016.4 |
| 20260502203326 | 16 | 30 | 3.2 | 4.8 | 0.00 | 0.05 | 0.05 | 68 | 1016.6 |
| 20260502202826 | 16 | 60 | 3.2 | 3.2 | 0.00 | 0.05 | 0.05 | 69 | 1016.8 |
| 20260502202324 | 16 | 56 | 1.6 | 1.6 | 0.00 | 0.05 | 0.05 | 68 | 1016.7 |
| 20260502201821 | 16 | 205 | 0.0 | 4.8 | 0.00 | 0.05 | 0.05 | 71 | 1016.9 |
| 20260502201317 | 16 | 250 | 3.2 | 4.8 | 0.00 | 0.05 | 0.05 | 70 | 1016.9 |
| 20260502200814 | 15 | 254 | 1.6 | 4.8 | 0.00 | 0.05 | 0.05 | 70 | 1016.9 |
| 20260502200310 | 16 | 262 | 4.8 | 4.8 | 0.00 | 0.05 | 0.05 | 68 | 1017.0 |
| 20260502195808 | 16 | 5 | 0.0 | 3.2 | 0.00 | 0.05 | 0.05 | 70 | 1017.2 |
| 20260502195305 | 15 | 56 | 0.0 | 0.0 | 0.00 | 0.05 | 0.05 | 75 | 1017.1 |
| 20260502194801 | 15 | 273 | 3.2 | 4.8 | 0.00 | 0.05 | 0.05 | 73 | 1017.1 |
| 20260502194258 | 14 | 273 | 0.0 | 3.2 | 0.00 | 0.05 | 0.05 | 73 | 1017.4 |
| 20260502193754 | 15 | 273 | 1.6 | 4.8 | 0.00 | 0.05 | 0.05 | 71 | 1017.3 |
| 20260502193251 | 14 | 301 | 4.8 | 6.4 | 0.00 | 0.05 | 0.05 | 73 | 1017.0 |
| 20260502192751 | 15 | 277 | 3.2 | 4.8 | 0.00 | 0.05 | 0.05 | 74 | 1017.2 |
| 20260502192249 | 14 | 292 | 1.6 | 3.2 | 0.00 | 0.05 | 0.05 | 74 | 1017.3 |
| 20260502191746 | 14 | 298 | 0.0 | 1.6 | 0.00 | 0.05 | 0.05 | 76 | 1017.3 |
| 20260502191244 | 14 | 308 | 3.2 | 6.4 | 0.00 | 0.05 | 0.05 | 74 | 1017.5 |
| 20260502190741 | 14 | 262 | 1.6 | 3.2 | 0.00 | 0.05 | 0.05 | 76 | 1017.5 |
| 20260502190238 | 13 | 239 | 1.6 | 3.2 | 0.00 | 0.05 | 0.05 | 76 | 1017.8 |
| 20260502185738 | 13 | 273 | 3.2 | 6.4 | 0.00 | 0.05 | 0.05 | 78 | 1018.0 |
| 20260502185235 | 13 | 279 | 3.2 | 4.8 | 0.00 | 0.05 | 0.05 | 74 | 1017.9 |
| 20260502184731 | 13 | 346 | 0.0 | 1.6 | 0.00 | 0.05 | 0.05 | 77 | 1017.8 |
| 20260502184227 | 13 | 354 | 3.2 | 3.2 | 0.00 | 0.05 | 0.05 | 76 | 1018.1 |
| 20260502183724 | 13 | 196 | 0.0 | 0.0 | 0.00 | 0.05 | 0.05 | 79 | 1018.0 |
| 20260502183220 | 13 | 284 | 1.6 | 3.2 | 0.00 | 0.05 | 0.05 | 77 | 1018.0 |
| 20260502182715 | 13 | 342 | 3.2 | 4.8 | 0.00 | 0.05 | 0.05 | 79 | 1017.8 |
| 20260502182211 | 12 | 26 | 0.0 | 4.8 | 0.00 | 0.05 | 0.05 | 81 | 1017.5 |
| 20260502181709 | 12 | 22 | 3.2 | 4.8 | 0.00 | 0.05 | 0.05 | 80 | 1017.5 |